GW0175 Weather Reports


Display with metric or nautical units.
time (UTC)temp
F
wind
direction
speed
MPH
gust
MPH
rain 1hr
in
rain 24hr
in
rain mn
in
humidity
%
barometer
mb
20240303052415 58 123 4.0 8.0 0.00 0.00 0.00 25 1008.5
20240303051915 59 141 9.0 10.0 0.00 0.00 0.00 24 1008.5
20240303051414 58 147 4.0 5.0 0.00 0.00 0.00 24 1008.6
20240303050912 59 126 3.0 3.0 0.00 0.00 0.00 23 1008.8
20240303050411 60 154 2.0 3.0 0.00 0.00 0.00 22 1008.8
20240303045911 60 230 3.0 4.0 0.00 0.00 0.00 22 1008.6
20240303045411 58 137 4.0 5.0 0.00 0.00 0.00 24 1008.6
20240303044910 57 134 5.0 6.0 0.00 0.00 0.00 25 1008.6
20240303044410 58 137 5.0 5.0 0.00 0.00 0.00 25 1008.5
20240303043909 58 111 3.0 5.0 0.00 0.00 0.00 26 1008.7
20240303043409 58 130 4.0 5.0 0.00 0.00 0.00 25 1008.5
20240303042908 57 180 2.0 4.0 0.00 0.00 0.00 27 1008.7
20240303042407 57 184 2.0 4.0 0.00 0.00 0.00 27 1008.6
20240303041906 57 180 1.0 2.0 0.00 0.00 0.00 27 1008.9
20240303041404 58 175 0.0 3.0 0.00 0.00 0.00 25 1009.0
20240303040902 59 196 2.0 4.0 0.00 0.00 0.00 25 1008.8
20240303040401 59 175 0.0 4.0 0.00 0.00 0.00 26 1008.9
20240303035900 59 180 0.0 7.0 0.00 0.00 0.00 25 1009.0
20240303035358 60 125 3.0 6.0 0.00 0.00 0.00 24 1009.2
20240303034857 60 140 2.0 5.0 0.00 0.00 0.00 25 1009.2
20240303034356 60 191 2.0 4.0 0.00 0.00 0.00 25 1008.9
20240303033855 59 212 0.0 5.0 0.00 0.00 0.00 26 1009.0
20240303033354 59 186 1.0 4.0 0.00 0.00 0.00 25 1008.9
20240303032854 58 191 1.0 4.0 0.00 0.00 0.00 28 1008.9
20240303032352 61 149 3.0 3.0 0.00 0.00 0.00 23 1008.8
20240303031852 60 174 1.0 3.0 0.00 0.00 0.00 23 1008.9
20240303031350 60 160 0.0 3.0 0.00 0.00 0.00 24 1009.0
20240303030848 60 195 0.0 4.0 0.00 0.00 0.00 23 1009.0
20240303030348 61 192 2.0 4.0 0.00 0.00 0.00 22 1008.8
20240303025846 61 106 0.0 3.0 0.00 0.00 0.00 22 1008.9
20240303025345 61 135 0.0 3.0 0.00 0.00 0.00 21 1008.9
20240303024844 60 143 5.0 5.0 0.00 0.00 0.00 23 1009.0
20240303024344 61 114 0.0 3.0 0.00 0.00 0.00 22 1008.8
20240303023842 61 90 2.0 2.0 0.00 0.00 0.00 21 1008.8
20240303023341 62 132 2.0 3.0 0.00 0.00 0.00 20 1008.8
20240303022841 62 120 0.0 2.0 0.00 0.00 0.00 21 1009.0
20240303022339 63 194 1.0 3.0 0.00 0.00 0.00 20 1008.8
20240303021837 63 173 1.0 4.0 0.00 0.00 0.00 20 1008.9
20240303021336 63 209 3.0 5.0 0.00 0.00 0.00 20 1008.7
20240303020835 63 216 3.0 5.0 0.00 0.00 0.00 20 1008.9
20240303020333 64 203 3.0 5.0 0.00 0.00 0.00 19 1008.6
20240303015832 65 216 5.0 6.0 0.00 0.00 0.00 19 1008.8
20240303015331 65 215 4.0 6.0 0.00 0.00 0.00 18 1008.7
20240303014831 66 216 5.0 8.0 0.00 0.00 0.00 18 1008.6
20240303014330 64 215 5.0 6.0 0.00 0.00 0.00 19 1008.9
20240303013829 65 222 3.0 4.0 0.00 0.00 0.00 18 1009.1
20240303013328 65 202 3.0 3.0 0.00 0.00 0.00 18 1009.2
20240303012827 66 191 2.0 3.0 0.00 0.00 0.00 18 1009.1
20240303012326 67 243 1.0 6.0 0.00 0.00 0.00 17 1009.4
20240303011825 67 225 3.0 7.0 0.00 0.00 0.00 16 1009.1
20240303011325 68 227 5.0 9.0 0.00 0.00 0.00 15 1009.1
20240303010825 69 225 3.0 13.0 0.00 0.00 0.00 15 1008.8
20240303010324 69 223 7.0 9.0 0.00 0.00 0.00 15 1008.8
20240303005822 69 212 6.0 13.0 0.00 0.00 0.00 14 1008.8
20240303005322 70 229 10.0 12.0 0.00 0.00 0.00 14 1008.7
20240303004821 71 234 7.0 25.0 0.00 0.00 0.00 13 1008.5
20240303004319 71 219 4.0 13.0 0.00 0.00 0.00 14 1008.7
20240303003818 71 187 5.0 16.0 0.00 0.00 0.00 13 1008.7
20240303003316 72 232 9.0 16.0 0.00 0.00 0.00 14 1008.6
20240303002815 72 209 6.0 16.0 0.00 0.00 0.00 14 1008.8
20240303002314 73 214 7.0 17.0 0.00 0.00 0.00 13 1008.5
20240303001812 73 228 8.0 17.0 0.00 0.00 0.00 12 1008.6
20240303001310 73 201 3.0 18.0 0.00 0.00 0.00 12 1008.3
20240303000810 74 200 12.0 21.0 0.00 0.00 0.00 12 1008.2
20240303000311 74 201 5.0 17.0 0.00 0.00 0.00 13 1008.2
20240302235810 74 223 12.0 17.0 0.00 0.00 0.00 13 1008.4
20240302235309 75 230 7.0 16.0 0.00 0.00 0.00 13 1008.7
20240302234808 75 228 12.0 21.0 0.00 0.00 0.00 12 1008.4
20240302234307 75 176 6.0 13.0 0.00 0.00 0.00 12 1008.4
20240302233806 75 232 14.0 19.0 0.00 0.00 0.00 13 1008.5
20240302233306 75 231 11.0 15.0 0.00 0.00 0.00 13 1008.5
20240302232806 75 246 8.0 18.0 0.00 0.00 0.00 13 1008.4
20240302232306 75 199 9.0 16.0 0.00 0.00 0.00 13 1008.6
20240302231803 75 210 6.0 16.0 0.00 0.00 0.00 13 1008.8
20240302231301 75 226 6.0 14.0 0.00 0.00 0.00 13 1008.6
20240302230800 76 226 11.0 19.0 0.00 0.00 0.00 13 1008.8
20240302230300 76 226 10.0 15.0 0.00 0.00 0.00 13 1008.8
20240302225758 76 241 7.0 17.0 0.00 0.00 0.00 12 1008.7
20240302225257 77 227 9.0 18.0 0.00 0.00 0.00 13 1008.7
20240302224756 76 221 4.0 18.0 0.00 0.00 0.00 12 1008.7
20240302224256 77 223 13.0 15.0 0.00 0.00 0.00 12 1008.7
20240302223755 76 231 11.0 19.0 0.00 0.00 0.00 12 1008.7
20240302223253 77 268 10.0 19.0 0.00 0.00 0.00 11 1008.9
20240302222753 76 220 16.0 21.0 0.00 0.00 0.00 12 1008.9
20240302222252 78 224 20.0 20.0 0.00 0.00 0.00 11 1008.9
20240302221751 78 203 11.0 21.0 0.00 0.00 0.00 11 1008.7
20240302221250 77 226 12.0 24.0 0.00 0.00 0.00 12 1008.9
20240302220749 77 236 9.0 20.0 0.00 0.00 0.00 12 1008.8
20240302220248 77 242 7.0 22.0 0.00 0.00 0.00 13 1009.1
20240302215747 77 247 8.0 18.0 0.00 0.00 0.00 12 1009.0
20240302215246 76 218 8.0 17.0 0.00 0.00 0.00 12 1009.0
20240302214745 76 222 10.0 23.0 0.00 0.00 0.00 13 1008.9
20240302214244 77 248 7.0 18.0 0.00 0.00 0.00 13 1008.8
20240302213742 76 280 6.0 18.0 0.00 0.00 0.00 13 1008.9
20240302213241 77 228 11.0 20.0 0.00 0.00 0.00 13 1008.7
20240302212740 76 218 9.0 23.0 0.00 0.00 0.00 13 1008.8
20240302212238 77 222 24.0 24.0 0.00 0.00 0.00 12 1009.1
20240302211738 77 223 11.0 24.0 0.00 0.00 0.00 12 1008.9
20240302211236 76 250 9.0 19.0 0.00 0.00 0.00 12 1009.0
20240302210735 76 222 9.0 16.0 0.00 0.00 0.00 12 1009.4
20240302210234 76 196 8.0 20.0 0.00 0.00 0.00 12 1009.1
20240302205734 77 226 15.0 22.0 0.00 0.00 0.00 12 1009.1
20240302205232 76 229 19.0 22.0 0.00 0.00 0.00 13 1009.2
20240302204731 77 249 10.0 20.0 0.00 0.00 0.00 13 1009.2
20240302204230 76 218 8.0 26.0 0.00 0.00 0.00 13 1009.7
20240302203728 76 225 9.0 22.0 0.00 0.00 0.00 13 1009.2
20240302203227 76 240 10.0 23.0 0.00 0.00 0.00 14 1009.4
20240302202725 77 221 10.0 29.0 0.00 0.00 0.00 14 1009.5
20240302202224 77 203 10.0 14.0 0.00 0.00 0.00 14 1009.7
20240302201724 75 226 8.0 17.0 0.00 0.00 0.00 15 1009.5
20240302201223 75 225 6.0 15.0 0.00 0.00 0.00 18 1010.0
20240302200723 74 233 13.0 17.0 0.00 0.00 0.00 18 1010.1
20240302200222 75 207 3.0 21.0 0.00 0.00 0.00 18 1010.6
20240302195720 75 221 8.0 21.0 0.00 0.00 0.00 17 1010.4
20240302195219 74 279 2.0 26.0 0.00 0.00 0.00 17 1010.8
20240302194718 73 206 10.0 22.0 0.00 0.00 0.00 19 1010.7
20240302194217 74 217 8.0 13.0 0.00 0.00 0.00 20 1011.1
20240302193716 73 264 7.0 11.0 0.00 0.00 0.00 21 1011.1
20240302193215 72 220 5.0 11.0 0.00 0.00 0.00 23 1011.3
20240302192714 72 228 4.0 9.0 0.00 0.00 0.00 23 1011.6
20240302192212 72 207 7.0 17.0 0.00 0.00 0.00 23 1011.5
20240302191711 71 193 9.0 14.0 0.00 0.00 0.00 24 1011.8
20240302191211 71 186 5.0 13.0 0.00 0.00 0.00 24 1011.9
20240302190709 70 228 5.0 11.0 0.00 0.00 0.00 25 1012.0
20240302190209 70 204 5.0 20.0 0.00 0.00 0.00 25 1012.3
20240302185708 68 142 0.0 13.0 0.00 0.00 0.00 25 1012.3
20240302185207 68 134 6.0 13.0 0.00 0.00 0.00 25 1012.3
20240302184706 69 202 6.0 10.0 0.00 0.00 0.00 25 1012.7
20240302184205 68 157 3.0 14.0 0.00 0.00 0.00 26 1012.2
20240302183704 68 208 5.0 17.0 0.00 0.00 0.00 25 1012.5
20240302183204 68 211 8.0 16.0 0.00 0.00 0.00 25 1012.3
20240302182703 68 223 10.0 16.0 0.00 0.00 0.00 25 1012.5
20240302182203 68 201 6.0 15.0 0.00 0.00 0.00 25 1012.3
20240302181701 68 225 12.0 19.0 0.00 0.00 0.00 25 1012.7
20240302181200 68 267 4.0 19.0 0.00 0.00 0.00 25 1012.5
20240302180700 68 198 10.0 22.0 0.00 0.00 0.00 25 1012.9
20240302180158 68 206 10.0 20.0 0.00 0.00 0.00 25 1012.7
20240302175658 69 223 15.0 17.0 0.00 0.00 0.00 25 1013.0
20240302175156 69 246 15.0 22.0 0.00 0.00 0.00 25 1013.0
20240302174655 68 193 9.0 18.0 0.00 0.00 0.00 25 1012.7
20240302174154 68 222 9.0 16.0 0.00 0.00 0.00 26 1012.9
20240302173653 67 229 12.0 21.0 0.00 0.00 0.00 26 1013.0
20240302173152 68 220 11.0 16.0 0.00 0.00 0.00 26 1013.0
20240302172650 68 231 8.0 15.0 0.00 0.00 0.00 27 1013.1
20240302172149 68 198 5.0 16.0 0.00 0.00 0.00 26 1013.4
20240302171648 68 217 13.0 15.0 0.00 0.00 0.00 26 1013.3
20240302171147 68 217 9.0 15.0 0.00 0.00 0.00 27 1013.4
20240302170646 68 230 7.0 12.0 0.00 0.00 0.00 28 1013.3
20240302170146 66 205 6.0 11.0 0.00 0.00 0.00 29 1013.5
20240302165645 66 226 5.0 15.0 0.00 0.00 0.00 29 1013.5
20240302165145 66 210 4.0 11.0 0.00 0.00 0.00 30 1013.6
20240302164644 65 216 12.0 13.0 0.00 0.00 0.00 30 1013.7
20240302164143 64 222 3.0 10.0 0.00 0.00 0.00 32 1013.5
20240302163641 64 229 6.0 11.0 0.00 0.00 0.00 34 1013.7
20240302163140 63 238 4.0 7.0 0.00 0.00 0.00 34 1013.8
20240302162639 62 219 5.0 10.0 0.00 0.00 0.00 34 1013.6
20240302162138 62 199 6.0 9.0 0.00 0.00 0.00 34 1013.7
20240302161637 61 213 6.0 11.0 0.00 0.00 0.00 34 1013.6
20240302161137 61 222 6.0 10.0 0.00 0.00 0.00 34 1013.7
20240302160637 61 222 6.0 12.0 0.00 0.00 0.00 35 1013.6
20240302160137 58 173 0.0 3.0 0.00 0.00 0.00 44 1013.6
20240302155636 58 180 6.0 6.0 0.00 0.00 0.00 43 1013.7
20240302155136 57 125 2.0 4.0 0.00 0.00 0.00 43 1013.6
20240302154635 57 109 3.0 3.0 0.00 0.00 0.00 44 1013.7
20240302154134 56 111 1.0 3.0 0.00 0.00 0.00 46 1013.8
20240302153633 55 132 2.0 5.0 0.00 0.00 0.00 45 1013.7
20240302153132 55 130 2.0 4.0 0.00 0.00 0.00 45 1013.9
20240302152631 55 119 2.0 3.0 0.00 0.00 0.00 45 1014.1
20240302152130 55 154 4.0 5.0 0.00 0.00 0.00 44 1013.7
20240302151629 55 146 4.0 4.0 0.00 0.00 0.00 44 1014.2
20240302151128 53 135 2.0 3.0 0.00 0.00 0.00 51 1014.1
20240302150628 52 90 2.0 3.0 0.00 0.00 0.00 53 1013.8
20240302150126 51 117 1.0 3.0 0.00 0.00 0.00 52 1013.8
20240302145625 50 157 1.0 2.0 0.00 0.00 0.00 53 1013.9
20240302145124 50 129 3.0 4.0 0.00 0.00 0.00 52 1013.9
20240302144622 50 120 3.0 5.0 0.00 0.00 0.00 51 1013.9
20240302144122 50 148 3.0 5.0 0.00 0.00 0.00 49 1014.1
20240302143620 49 129 3.0 4.0 0.00 0.00 0.00 48 1013.9
20240302143118 48 108 3.0 4.0 0.00 0.00 0.00 50 1013.9
20240302142618 48 81 2.0 2.0 0.00 0.00 0.00 52 1013.8
20240302142116 48 103 1.0 2.0 0.00 0.00 0.00 52 1013.9
20240302141615 48 90 2.0 3.0 0.00 0.00 0.00 51 1013.7
20240302141113 48 102 2.0 3.0 0.00 0.00 0.00 52 1013.8
20240302140613 48 77 1.0 3.0 0.00 0.00 0.00 52 1013.8
20240302140113 50 90 2.0 3.0 0.00 0.00 0.00 49 1013.6
20240302135612 48 90 1.0 4.0 0.00 0.00 0.00 51 1013.7
20240302135111 45 98 1.0 2.0 0.00 0.00 0.00 57 1013.4
20240302134609 43 14 0.0 4.0 0.00 0.00 0.00 59 1013.6
20240302134108 42 90 1.0 2.0 0.00 0.00 0.00 58 1013.4
20240302133607 43 90 0.0 3.0 0.00 0.00 0.00 57 1013.3
20240302133106 44 102 1.0 2.0 0.00 0.00 0.00 54 1013.4
20240302132604 45 16 0.0 2.0 0.00 0.00 0.00 53 1013.5
20240302132103 45 90 0.0 1.0 0.00 0.00 0.00 53 1013.2
20240302131603 46 90 0.0 1.0 0.00 0.00 0.00 52 1013.6
20240302131103 45 0 0.0 2.0 0.00 0.00 0.00 53 1013.5
20240302130602 45 74 0.0 0.0 0.00 0.00 0.00 54 1013.8
20240302130100 45 40 0.0 2.0 0.00 0.00 0.00 54 1013.6
20240302125558 45 90 0.0 2.0 0.00 0.00 0.00 53 1013.5
20240302125056 47 45 2.0 2.0 0.00 0.00 0.00 50 1013.6
20240302124554 48 105 1.0 3.0 0.00 0.00 0.00 49 1013.5
20240302124054 48 126 3.0 3.0 0.00 0.00 0.00 48 1013.4
20240302123553 50 216 3.0 3.0 0.00 0.00 0.00 45 1013.6
20240302123051 51 191 2.0 3.0 0.00 0.00 0.00 43 1013.4
20240302122550 52 239 4.0 5.0 0.00 0.00 0.00 42 1013.2
20240302122048 52 255 0.0 3.0 0.00 0.00 0.00 41 1013.1
20240302121546 54 234 1.0 5.0 0.00 0.00 0.00 39 1013.2
20240302121046 55 268 7.0 7.0 0.00 0.00 0.00 36 1013.3
20240302120545 55 244 6.0 7.0 0.00 0.00 0.00 38 1013.2
20240302120044 53 277 3.0 7.0 0.00 0.00 0.00 41 1013.3
20240302115544 51 187 2.0 7.0 0.00 0.00 0.00 42 1013.4
20240302115044 51 192 2.0 6.0 0.00 0.00 0.00 42 1013.3
20240302114543 49 218 4.0 6.0 0.00 0.00 0.00 45 1013.1
20240302114041 47 205 3.0 3.0 0.00 0.00 0.00 50 1013.3
20240302113540 48 196 2.0 2.0 0.00 0.00 0.00 48 1013.4
20240302113038 49 270 0.0 4.0 0.00 0.00 0.00 46 1013.2
20240302112537 50 204 4.0 5.0 0.00 0.00 0.00 45 1013.6
20240302112035 50 206 6.0 6.0 0.00 0.00 0.00 44 1013.6
20240302111534 50 217 2.0 4.0 0.00 0.00 0.00 43 1013.3
20240302111032 51 212 3.0 4.0 0.00 0.00 0.00 42 1013.7
20240302110531 51 233 3.0 5.0 0.00 0.00 0.00 42 1013.5
20240302110030 50 212 3.0 6.0 0.00 0.00 0.00 45 1013.8
20240302105529 47 231 5.0 5.0 0.00 0.00 0.00 49 1013.8
20240302105028 47 188 2.0 5.0 0.00 0.00 0.00 49 1013.7
20240302104528 49 209 3.0 5.0 0.00 0.00 0.00 45 1013.9
20240302104028 50 212 3.0 5.0 0.00 0.00 0.00 43 1013.7
20240302103527 51 206 3.0 5.0 0.00 0.00 0.00 43 1013.5
20240302103026 51 218 3.0 9.0 0.00 0.00 0.00 42 1013.5
20240302102525 51 199 4.0 8.0 0.00 0.00 0.00 42 1013.5
20240302102025 51 211 3.0 9.0 0.00 0.00 0.00 43 1013.7
20240302101523 50 217 5.0 9.0 0.00 0.00 0.00 44 1013.7
20240302101022 50 212 7.0 10.0 0.00 0.00 0.00 44 1013.5
20240302100521 51 211 4.0 9.0 0.00 0.00 0.00 43 1013.4
20240302100020 51 219 6.0 9.0 0.00 0.00 0.00 42 1013.6
20240302095519 52 217 5.0 9.0 0.00 0.00 0.00 41 1013.6
20240302095017 53 218 7.0 9.0 0.00 0.00 0.00 40 1013.6
20240302094515 51 206 1.0 3.0 0.00 0.00 0.00 42 1013.4
20240302094014 53 115 2.0 3.0 0.00 0.00 0.00 39 1013.6
20240302093512 55 192 3.0 8.0 0.00 0.00 0.00 37 1013.7
20240302093012 52 135 2.0 5.0 0.00 0.00 0.00 40 1013.8
20240302092510 50 90 0.0 4.0 0.00 0.00 0.00 44 1013.8
20240302092008 46 79 3.0 4.0 0.00 0.00 0.00 50 1013.8
20240302091506 42 101 3.0 4.0 0.00 0.00 0.00 57 1013.9
20240302091004 44 120 3.0 6.0 0.00 0.00 0.00 54 1013.7
20240302090503 46 101 2.0 5.0 0.00 0.00 0.00 51 1013.7
20240302090001 46 45 3.0 4.0 0.00 0.00 0.00 50 1013.8
20240302085459 46 39 2.0 3.0 0.00 0.00 0.00 51 1013.8
20240302084958 48 7 1.0 2.0 0.00 0.00 0.00 47 1013.9
20240302084457 48 297 0.0 2.0 0.00 0.00 0.00 49 1013.8
20240302083956 47 180 0.0 2.0 0.00 0.00 0.00 49 1013.7
20240302083455 47 180 2.0 2.0 0.00 0.00 0.00 50 1013.6
20240302082953 45 120 1.0 3.0 0.00 0.00 0.00 51 1013.7
20240302082453 44 90 2.0 2.0 0.00 0.00 0.00 50 1013.8
20240302081952 48 81 0.0 2.0 0.00 0.00 0.00 47 1013.9
20240302081451 48 124 2.0 3.0 0.00 0.00 0.00 46 1013.9
20240302080951 47 130 2.0 3.0 0.00 0.00 0.00 48 1013.7
20240302080449 46 126 0.0 3.0 0.00 0.00 0.00 48 1013.6
20240302075947 48 20 3.0 3.0 0.00 0.00 0.00 44 1013.4
20240302075446 50 29 0.0 1.0 0.00 0.00 0.00 42 1013.7
20240302074946 50 236 0.0 3.0 0.00 0.00 0.00 42 1013.3
20240302074444 51 212 3.0 3.0 0.00 0.00 0.00 41 1013.4
20240302073943 51 216 3.0 4.0 0.00 0.00 0.00 39 1013.6
20240302073443 52 204 2.0 3.0 0.00 0.00 0.00 38 1013.7
20240302072943 53 198 3.0 4.0 0.00 0.00 0.00 37 1013.5
20240302072442 53 180 2.0 4.0 0.00 0.00 0.00 36 1013.6
20240302071942 53 202 3.0 3.0 0.00 0.00 0.00 36 1013.8
20240302071440 52 186 1.0 3.0 0.00 0.00 0.00 37 1013.6
20240302070940 52 233 3.0 3.0 0.00 0.00 0.00 37 1013.6
20240302070440 52 240 3.0 4.0 0.00 0.00 0.00 36 1013.8
20240302065939 52 231 2.0 7.0 0.00 0.00 0.00 37 1013.7
20240302065437 49 250 4.0 4.0 0.00 0.00 0.00 43 1013.6
20240302064936 48 253 0.0 3.0 0.00 0.00 0.00 44 1013.9
20240302064435 49 180 0.0 1.0 0.00 0.00 0.00 44 1013.8
20240302063935 49 114 0.0 2.0 0.00 0.00 0.00 44 1013.7
20240302063434 49 40 1.0 2.0 0.00 0.00 0.00 43 1013.7
20240302062932 50 60 1.0 1.0 0.00 0.00 0.00 42 1013.9
20240302062432 52 172 0.0 0.0 0.00 0.00 0.00 39 1013.9
20240302061930 53 131 0.0 2.0 0.00 0.00 0.00 38 1013.9
20240302061428 53 184 2.0 3.0 0.00 0.00 0.00 37 1013.8
20240302060928 54 237 2.0 5.0 0.00 0.00 0.00 37 1013.7
20240302060426 53 206 3.0 4.0 0.00 0.00 0.00 39 1013.8
20240302055924 53 212 3.0 5.0 0.00 0.00 0.00 40 1014.2
20240302055423 54 221 4.0 7.0 0.00 0.00 0.00 38 1014.1
20240302054922 55 214 3.0 7.0 0.00 0.00 0.00 37 1013.8
20240302054420 55 210 5.0 8.0 0.00 0.00 0.00 37 1014.2
20240302053917 55 221 5.0 7.0 0.00 0.00 0.00 36 1014.1
20240302053417 55 196 3.0 7.0 0.00 0.00 0.00 36 1014.3
20240302052915 55 198 5.0 6.0 0.00 0.00 0.00 37 1014.1